EW1931 Weather Reports


time (UTC)temp
C
wind
direction
speed
KPH
gust
KPH
rain 1hr
cm
rain 24hr
cm
rain mn
cm
humidity
%
barometer
mb
20260831220003 23 219 11.3 20.9 0.00 0.00 0.00 35 1011.3
20260831214545 23 225 11.3 24.1 0.00 0.00 0.00 35 1011.3
20260831213043 23 216 16.1 22.5 0.00 0.00 0.00 35 1011.4
20260831211532 23 285 11.3 19.3 0.00 0.00 0.00 36 1011.4
20260831210033 23 243 12.9 20.9 0.00 0.00 0.00 36 1011.5
20260831204529 22 181 9.7 27.4 0.00 0.00 0.00 37 1011.7
20260831203026 22 235 16.1 27.4 0.00 0.00 0.00 37 1011.8
20260831201528 22 243 4.8 19.3 0.00 0.00 0.00 38 1011.8
20260831200029 22 245 17.7 30.6 0.00 0.00 0.00 38 1011.9
20260831194528 22 296 16.1 27.4 0.00 0.00 0.00 38 1011.9
20260831193019 22 282 12.9 27.4 0.00 0.00 0.00 38 1012.1
20260831191600 21 268 17.7 27.4 0.00 0.00 0.00 39 1012.2
20260831190114 22 246 14.5 25.7 0.00 0.00 0.00 40 1012.4
20260831184539 21 240 11.3 25.7 0.00 0.00 0.00 41 1012.5
20260831183037 21 310 17.7 25.7 0.00 0.00 0.00 41 1012.8
20260831181518 21 256 16.1 29.0 0.00 0.00 0.00 42 1012.7
20260831180015 21 296 11.3 27.4 0.00 0.00 0.00 42 1012.8
20260831174614 20 285 16.1 25.7 0.00 0.00 0.00 44 1012.8
20260831173058 20 312 19.3 32.2 0.00 0.00 0.00 45 1012.8
20260831171553 20 323 12.9 25.7 0.00 0.00 0.00 47 1012.8
20260831170035 19 318 14.5 27.4 0.00 0.00 0.00 47 1012.9
20260831164531 19 295 20.9 29.0 0.00 0.00 0.00 47 1013.0
20260831163010 18 333 16.1 32.2 0.00 0.00 0.00 49 1012.9
20260831161510 18 300 20.9 35.4 0.00 0.00 0.00 48 1012.9
20260831160058 17 319 17.7 33.8 0.00 0.00 0.00 49 1012.9
20260831154617 17 281 24.1 33.8 0.00 0.00 0.00 49 1012.8
20260831153033 17 287 24.1 35.4 0.00 0.00 0.00 50 1012.8
20260831151534 16 284 29.0 38.6 0.00 0.00 0.00 50 1012.7
20260831150016 16 298 27.4 37.0 0.00 0.00 0.00 51 1012.6
20260831144511 15 284 22.5 35.4 0.00 0.00 0.00 55 1012.3
20260831143110 13 313 22.5 30.6 0.00 0.00 0.00 60 1012.2
20260831141611 12 292 20.9 29.0 0.00 0.00 0.00 65 1012.0
20260831140041 11 304 20.9 27.4 0.00 0.00 0.00 69 1012.0
20260831134536 10 284 19.3 24.1 0.00 0.00 0.00 74 1011.9
20260831133021 8 263 14.5 20.9 0.00 0.00 0.00 77 1011.8
20260831131512 8 258 17.7 25.7 0.00 0.00 0.00 77 1011.5
20260831130056 8 281 19.3 25.7 0.00 0.00 0.00 79 1011.3
20260831124559 8 246 16.1 22.5 0.00 0.00 0.00 76 1011.3
20260831123031 8 275 17.7 22.5 0.00 0.00 0.00 77 1011.1
20260831121530 8 261 16.1 22.5 0.00 0.00 0.00 76 1011.0
20260831120013 8 259 16.1 24.1 0.00 0.00 0.00 76 1010.9
20260831114512 8 255 20.9 24.1 0.00 0.00 0.00 77 1010.9
20260831113055 8 261 19.3 25.7 0.00 0.00 0.00 76 1010.8
20260831111555 7 257 16.1 19.3 0.00 0.00 0.00 78 1010.9
20260831110037 8 256 17.7 27.4 0.00 0.00 0.00 77 1010.7
20260831104533 8 264 19.3 24.1 0.00 0.00 0.00 76 1010.4
20260831103014 8 254 20.9 25.7 0.00 0.00 0.00 75 1010.4
20260831101511 8 249 14.5 19.3 0.00 0.00 0.00 75 1010.3
20260831100059 8 251 12.9 17.7 0.00 0.00 0.00 74 1010.3
20260831094551 8 236 16.1 22.5 0.00 0.00 0.00 72 1010.2
20260831093032 9 248 17.7 25.7 0.00 0.00 0.00 71 1010.2
20260831091533 9 245 16.1 19.3 0.00 0.00 0.00 71 1010.3
20260831090014 8 232 12.9 17.7 0.00 0.00 0.00 72 1010.3
20260831084511 8 240 11.3 17.7 0.00 0.00 0.00 72 1009.9
20260831083053 9 229 16.1 19.3 0.00 0.08 0.00 70 1009.9
20260831081551 8 237 16.1 19.3 0.00 0.08 0.00 72 1009.8
20260831080029 10 231 14.5 20.9 0.00 0.08 0.00 69 1009.7
20260831074529 10 264 17.7 25.7 0.00 0.08 0.00 69 1009.6
20260831073022 10 252 14.5 19.3 0.00 0.15 0.00 68 1009.6
20260831071508 11 231 16.1 24.1 0.00 0.15 0.00 66 1009.6
20260831070048 11 255 20.9 29.0 0.00 0.15 0.00 64 1009.4
20260831064551 11 246 19.3 27.4 0.00 0.15 0.00 63 1009.7
20260831063028 12 257 22.5 30.6 0.00 0.15 0.00 62 1009.6
20260831061527 12 246 20.9 25.7 0.00 0.15 0.00 61 1009.5
20260831060004 12 242 17.7 30.6 0.00 0.15 0.00 59 1009.6
20260831054506 12 253 22.5 30.6 0.00 0.15 0.00 58 1009.5
20260831053049 12 255 24.1 32.2 0.00 0.15 0.00 58 1009.4
20260831051555 13 257 29.0 38.6 0.00 0.15 0.00 55 1009.4
20260831050042 14 276 33.8 49.9 0.00 0.15 0.00 51 1009.4
20260831044542 15 275 35.4 48.3 0.00 0.15 0.00 49 1009.3
20260831043039 15 254 35.4 48.3 0.00 0.15 0.00 48 1009.3
20260831041537 15 267 32.2 46.7 0.00 0.15 0.00 48 1009.3
20260831040033 15 265 30.6 46.7 0.00 0.15 0.00 48 1009.3
20260831034533 15 266 29.0 41.8 0.00 0.15 0.00 48 1009.3
20260831033016 15 261 27.4 37.0 0.00 0.15 0.00 49 1009.4
20260831031514 15 264 32.2 40.2 0.00 0.15 0.00 48 1009.2
20260831030110 15 263 30.6 38.6 0.00 0.15 0.00 48 1009.1
20260831024621 15 243 19.3 30.6 0.00 0.15 0.00 49 1009.0
20260831023032 15 260 22.5 35.4 0.00 0.15 0.00 48 1008.9
20260831021531 16 249 29.0 48.3 0.00 0.15 0.00 46 1008.8
20260831020012 16 263 35.4 48.3 0.00 0.15 0.00 45 1008.5
20260831014511 16 267 33.8 48.3 0.00 0.15 0.00 43 1008.5
20260831013110 16 270 32.2 53.1 0.00 0.33 0.00 44 1008.5
20260831011551 16 284 35.4 49.9 0.00 0.33 0.00 44 1008.5
20260831010034 17 269 40.2 56.3 0.00 0.33 0.00 42 1008.4
20260831004533 17 297 33.8 51.5 0.00 0.33 0.00 41 1008.4
20260831003015 18 277 40.2 61.2 0.00 0.33 0.00 41 1008.2
20260831001515 18 274 43.5 62.8 0.00 0.33 0.00 41 1008.2
20260831000057 17 273 33.8 61.2 0.00 0.33 0.00 40 1008.0
20260830234604 17 275 38.6 61.2 0.00 0.33 0.00 41 1008.0
20260830233039 18 244 35.4 49.9 0.00 0.33 0.00 40 1007.9
20260830231539 18 258 35.4 48.3 0.00 0.33 0.00 41 1008.0
20260830230021 17 235 33.8 45.1 0.00 0.33 0.00 42 1008.1
20260830224522 17 229 32.2 43.5 0.00 0.33 0.00 42 1008.2
20260830223002 17 232 35.4 48.3 0.00 0.33 0.00 40 1008.3
20260830221501 17 234 30.6 49.9 0.00 0.33 0.00 41 1008.4